                ,  1.165,  1.315,  1.465,  1.615,  1.765,  1.915,  2.065,  2.215,  2.365,  2.515,  2.665,  2.815,  2.965,  3.115,  3.265,  3.415,  3.565,  3.715,  3.865,  4.015,  4.165,  4.315,  4.465,  4.615,  4.765,  4.915,  5.065,  5.215,  5.365,  5.515
2006/06/20 00:00,   -5.1,   -4.7,   -4.6,   -4.2,   -3.9,   -3.7,  999.0,  999.0,  999.0,  999.0,    0.3,  999.0,  999.0,  999.0,  999.0,  999.0,  999.0,  999.0,  999.0,  999.0,  999.0,  999.0,  999.0,  999.0,  999.0,  999.0,  999.0,  999.0,  999.0,  999.0
2006/06/20 00:10,   -4.3,   -3.9,   -3.7,   -3.6,   -3.3,   -2.7,   -0.2,    0.1,    0.3,   -0.1,   -0.3,    0.7,   -0.2,  999.0,    0.1,   -0.2,   -0.6,   -0.9,   -0.8,   -0.8,  999.0,  999.0,  999.0,   -4.8,   -2.8,   -2.1,   -1.8,   -1.9,   -1.8,   -1.9
2006/06/20 00:20,   -3.3,   -4.3,   -4.2,   -4.2,   -4.2,   -5.9,   -5.8,   -4.6,   -6.1,   -7.7,   -7.7,   -7.1,   -7.3,   -7.2,   -7.2,   -7.2,   -7.4,   -7.4,   -7.4,   -7.4,   -7.4,   -7.5,   -6.9,   -4.5,   -3.0,   -2.6,   -2.7,   -2.7,   -2.5,   -2.4
2006/06/20 00:30,   -5.8,   -5.9,   -6.0,   -6.3,   -6.5,   -6.6,   -6.7,   -6.8,   -6.5,   -6.5,   -6.7,   -6.7,   -6.7,   -6.6,   -6.5,   -6.4,   -6.4,   -6.4,   -6.6,   -6.6,   -6.7,   -6.7,   -6.5,   -4.6,  999.0,   -1.6,  999.0,  999.0,  999.0,   -1.4
2006/06/20 00:40,   -6.9,   -6.7,   -7.0,   -6.9,   -6.7,   -6.5,   -6.5,   -6.7,   -6.8,   -6.8,   -6.3,   -6.1,   -6.1,   -5.7,   -5.6,   -5.6,   -6.1,   -6.2,   -5.9,   -5.8,   -5.6,   -5.6,   -5.6,   -4.0,   -1.6,   -1.2,   -1.1,   -1.3,   -1.6,   -1.8
2006/06/20 00:50,   -6.6,   -6.1,   -6.0,   -5.8,   -5.6,   -5.4,   -5.1,   -5.0,   -4.8,   -4.8,   -4.5,   -4.1,   -4.5,   -4.5,   -4.7,   -4.6,   -4.4,   -4.5,   -4.4,   -4.3,   -4.4,   -4.4,   -3.9,   -2.3,   -1.6,   -1.5,   -1.5,   -1.6,   -1.6,   -1.5
2006/06/20 01:00,   -5.0,   -5.2,   -5.3,   -5.1,   -4.9,   -4.6,   -4.3,   -3.9,   -3.7,   -4.1,   -4.5,   -4.7,   -4.8,   -4.6,   -4.7,   -4.5,   -4.6,   -4.6,   -4.8,   -4.9,   -5.2,   -5.3,   -4.7,   -2.7,   -1.9,   -1.6,   -1.6,   -1.5,   -1.4,   -1.3
2006/06/20 01:10,   -4.4,   -4.2,   -4.1,   -4.1,   -4.1,   -4.3,   -4.3,   -4.5,   -4.6,   -5.0,   -5.4,   -5.6,   -6.0,   -6.2,   -6.3,   -6.6,   -6.1,   -6.1,   -6.8,   -6.9,   -6.6,   -6.6,   -5.2,   -2.8,  999.0,   -2.1,   -2.0,   -2.0,   -1.7,   -1.9
2006/06/20 01:20,   -5.1,   -5.2,   -4.8,   -5.0,   -4.8,   -4.4,   -3.9,   -3.7,   -4.0,   -4.9,   -5.3,   -5.3,   -5.0,   -5.1,   -5.1,   -5.0,   -4.9,   -5.1,   -4.9,   -5.1,   -5.0,   -5.4,   -4.8,   -2.5,   -1.4,   -1.3,   -1.4,   -1.6,   -1.7,   -1.5
2006/06/20 01:30,   -4.3,   -3.7,   -4.2,   -5.0,   -4.8,   -4.7,   -5.0,   -5.2,   -5.6,   -5.5,   -5.5,   -5.4,   -5.7,   -6.0,   -5.9,   -5.8,   -6.2,   -5.8,   -5.5,   -6.1,   -6.2,   -6.2,   -5.0,  999.0,   -1.9,   -1.8,   -1.8,   -1.6,  999.0,  999.0
2006/06/20 01:40,   -5.3,   -5.3,   -5.5,   -5.5,   -5.3,   -5.0,   -4.9,   -4.7,   -4.6,   -4.4,   -4.3,   -4.1,   -3.9,   -3.8,   -3.5,   -3.1,   -2.2,   -1.9,   -1.5,   -1.7,   -1.3,   -1.4,   -1.7,   -1.4,   -0.5,  999.0,  999.0,  999.0,  999.0,   -0.0
2006/06/20 01:50,   -4.5,   -4.0,   -3.6,   -3.2,   -3.0,   -3.4,   -3.2,   -2.9,   -2.7,   -2.4,   -2.3,   -2.0,   -1.9,   -1.6,   -1.7,   -2.1,   -2.0,   -0.6,  999.0,  999.0,  999.0,   -0.0,  999.0,  999.0,  999.0,  999.0,  999.0,  999.0,  999.0,  999.0
2006/06/20 02:00,   -3.0,   -2.7,   -2.5,   -2.6,   -2.4,   -2.2,   -2.0,   -1.8,   -1.6,   -1.4,   -1.2,   -1.1,   -1.0,   -0.8,   -0.1,   -0.0,   -0.1,  999.0,  999.0,    0.1,  999.0,    0.2,  999.0,  999.0,  999.0,  999.0,  999.0,  999.0,  999.0,  999.0
2006/06/20 02:10,   -2.2,   -2.2,   -1.9,   -1.9,   -1.8,   -1.5,   -1.3,   -0.5,   -1.1,   -1.0,   -1.2,   -0.5,  999.0,  999.0,   -0.5,   -0.0,  999.0,  999.0,  999.0,  999.0,  999.0,  999.0,  999.0,  999.0,  999.0,  999.0,  999.0,  999.0,  999.0,  999.0
2006/06/20 02:20,   -1.9,   -1.9,   -1.9,   -1.8,   -1.7,   -1.2,   -0.5,   -0.4,   -0.7,  999.0,   -0.7,   -0.8,  999.0,  999.0,  999.0,   -0.1,  999.0,  999.0,  999.0,  999.0,  999.0,  999.0,  999.0,  999.0,  999.0,  999.0,  999.0,  999.0,  999.0,  999.0
2006/06/20 02:30,   -2.4,   -2.3,   -2.2,   -2.1,   -1.9,   -1.6,   -1.4,   -0.9,   -0.8,   -0.4,   -0.1,   -0.3,   -0.1,  999.0,  999.0,  999.0,  999.0,  999.0,  999.0,  999.0,  999.0,  999.0,  999.0,  999.0,  999.0,  999.0,  999.0,  999.0,  999.0,  999.0
2006/06/20 02:40,   -2.6,   -2.5,   -2.5,   -2.2,   -2.1,   -2.0,   -1.9,   -1.2,   -0.9,   -0.4,   -0.4,    0.4,   -0.2,  999.0,  999.0,   -0.2,  999.0,  999.0,  999.0,  999.0,  999.0,  999.0,  999.0,  999.0,  999.0,  999.0,  999.0,  999.0,    0.1,  999.0
2006/06/20 02:50,   -2.9,   -2.8,   -2.6,   -2.2,   -2.0,   -1.6,   -1.5,   -0.8,   -1.0,   -0.4,   -0.1,  999.0,  999.0,  999.0,   -0.1,  999.0,  999.0,  999.0,    0.3,  999.0,  999.0,  999.0,  999.0,  999.0,  999.0,  999.0,  999.0,  999.0,  999.0,  999.0
2006/06/20 03:00,   -2.2,   -2.2,   -2.2,   -1.9,   -1.9,   -1.7,   -1.3,   -1.0,   -0.8,   -0.5,   -0.5,  999.0,  999.0,  999.0,  999.0,    0.2,  999.0,  999.0,  999.0,  999.0,  999.0,  999.0,  999.0,  999.0,  999.0,  999.0,  999.0,  999.0,  999.0,  999.0
2006/06/20 03:10,   -2.6,   -2.7,   -2.5,   -2.1,   -1.8,   -1.5,   -1.0,   -0.6,   -0.4,   -0.2,  999.0,  999.0,  999.0,  999.0,   -0.0,   -0.0,  999.0,  999.0,  999.0,  999.0,  999.0,  999.0,  999.0,  999.0,  999.0,  999.0,  999.0,  999.0,  999.0,  999.0
2006/06/20 03:20,   -2.0,   -2.1,   -2.2,   -2.0,   -1.7,   -1.5,   -1.2,   -0.5,   -0.3,   -0.4,  999.0,   -0.3,  999.0,    0.1,   -0.0,  999.0,   -0.0,  999.0,  999.0,  999.0,  999.0,    0.1,  999.0,  999.0,  999.0,  999.0,  999.0,  999.0,  999.0,  999.0
2006/06/20 03:30,   -1.6,   -2.0,   -2.2,   -2.2,   -1.9,   -1.8,   -1.5,   -1.0,   -0.7,   -0.6,   -0.1,    0.3,    0.1,    0.3,   -0.1,    0.1,  999.0,  999.0,  999.0,  999.0,  999.0,  999.0,  999.0,  999.0,  999.0,  999.0,  999.0,  999.0,  999.0,  999.0
2006/06/20 03:40,   -1.5,   -0.8,   -1.5,   -1.0,   -1.4,   -0.9,   -0.4,  999.0,   -0.6,   -0.3,  999.0,  999.0,  999.0,   -0.1,  999.0,    0.0,  999.0,  999.0,  999.0,  999.0,  999.0,  999.0,  999.0,  999.0,  999.0,  999.0,  999.0,  999.0,  999.0,  999.0
2006/06/20 03:50,    0.2,   -0.1,   -0.4,   -0.4,   -0.2,   -0.3,   -0.5,   -0.2,   -0.2,   -0.4,  999.0,  999.0,  999.0,  999.0,  999.0,  999.0,  999.0,  999.0,  999.0,  999.0,  999.0,  999.0,  999.0,  999.0,  999.0,  999.0,  999.0,  999.0,  999.0,  999.0
2006/06/20 04:00,  999.0,  999.0,  999.0,  999.0,  999.0,  999.0,  999.0,  999.0,  999.0,  999.0,   -3.4,   -4.2,  999.0,  999.0,  999.0,  999.0,  999.0,  999.0,  999.0,  999.0,  999.0,  999.0,  999.0,  999.0,  999.0,  999.0,  999.0,  999.0,  999.0,  999.0
2006/06/20 04:10,  999.0,  999.0,  999.0,  999.0,  999.0,  999.0,  999.0,  999.0,  999.0,   -0.2,   -2.9,  999.0,  999.0,  999.0,  999.0,  999.0,  999.0,  999.0,  999.0,  999.0,  999.0,  999.0,  999.0,  999.0,  999.0,  999.0,  999.0,  999.0,  999.0,  999.0
2006/06/20 04:20,   -5.0,  999.0,  999.0,  999.0,    8.1,  999.0,  999.0,  999.0,    9.2,    8.2,   -0.6,    8.3,  999.0,  999.0,  999.0,  999.0,  999.0,  999.0,  999.0,  999.0,  999.0,  999.0,  999.0,  999.0,  999.0,  999.0,  999.0,  999.0,  999.0,  999.0
